Home > Weather > Bari > Past weeks

Flag for Italy Past Weather in Bari, Italy — Yesterday and Last 2 Weeks

Now
73 °F

Clear.


Feels Like: 75 °F
Forecast: 70 / 90 °F
Wind: 5 mph from Southwest

Location: Bari / Palese Macchie

Current Time: Jul 28, 2016 at 1:04:14 AM

Latest Report: Jul 28, 2016 at 12:20 AM


Visibility: 10 mi

Pressure: 29.95 "Hg

Humidity: 74%

Dew Point: 64 °F

Location of BariLocation

Past Weather in Bari — Graph

°F

Bari Temperature Yesterday

Maximum temperature yesterday: 86 °F (at 2:50 PM)
Minimum temperature yesterday: 68 °F (at 5:20 AM)
Average temperature yesterday: 78 °F

High & Low Weather Summary for the Past Weeks

 TemperatureHumidityPressure
High99 °F (Jul 13, 2:50 PM)94% (Jul 16, 6:20 AM)30.09 "Hg (Jul 16, 6:20 AM)
Low61 °F (Jul 16, 11:50 PM)19% (Jul 14, 12:20 PM)29.71 "Hg (Jul 15, 11:50 AM)
Average78 °F57%29.94 "Hg
* Reported Jul 12 11:20 PM — Jul 27 11:50 PM, Bari, Weather by CustomWeather, © 2016

Note: Actual official high and low records may vary slightly from our data, if they occured in-between our weather recording intervals... More about our weather records

Advertising

Bari Weather History for the Previous 24 Hours

Scroll right to see more
 ConditionsComfort  
Time TempWeatherWind HumidityBarometerVisibility
11:50 PM
Wed, Jul 27
73 °FClear.5 mph78%29.95 "Hg10 mi
11:20 PM73 °FClear.2 mph78%29.95 "Hg10 mi
10:50 PM73 °FClear.3 mph78%29.95 "Hg10 mi
10:20 PM73 °FClear.1 mph78%29.95 "Hg10 mi
9:50 PM75 °FClear.No wind78%29.95 "Hg10 mi
9:20 PM77 °FClear.2 mph79%29.95 "Hg10 mi
8:50 PM77 °FSunny.2 mph79%29.92 "Hg10 mi
8:20 PM77 °FSunny.5 mph74%29.92 "Hg10 mi
7:50 PM79 °FPassing clouds.5 mph70%29.92 "HgN/A
7:20 PM79 °FPassing clouds.6 mph70%29.92 "HgN/A
6:50 PM81 °FPassing clouds.6 mph66%29.92 "HgN/A
6:20 PM81 °FPassing clouds.6 mph66%29.92 "HgN/A
5:50 PM82 °FPassing clouds.7 mph66%29.92 "HgN/A
5:20 PM82 °FPassing clouds.8 mph62%29.92 "HgN/A
4:50 PM84 °FSunny.10 mph55%29.92 "Hg10 mi
4:20 PM84 °FPassing clouds.9 mph51%29.92 "HgN/A
3:50 PM84 °FPassing clouds.9 mph51%29.92 "HgN/A
3:20 PM84 °FPassing clouds.8 mph48%29.92 "HgN/A
2:50 PM86 °FPassing clouds.8 mph49%29.95 "HgN/A
2:20 PM84 °FPassing clouds.8 mph48%29.95 "HgN/A
1:50 PM84 °FPassing clouds.8 mph48%29.95 "HgN/A
1:20 PM82 °FPassing clouds.9 mph58%29.95 "HgN/A
12:50 PM82 °FPassing clouds.9 mph58%29.95 "HgN/A
12:20 PM84 °FPassing clouds.8 mph55%29.95 "HgN/A
11:50 AM84 °FPassing clouds.8 mph48%29.95 "HgN/A
11:20 AM84 °FPassing clouds.9 mph45%29.95 "HgN/A
10:50 AM84 °FPassing clouds.8 mph43%29.95 "HgN/A
10:20 AM84 °FPassing clouds.8 mph45%29.95 "HgN/A
9:50 AM82 °FPassing clouds.8 mph51%29.95 "HgN/A
9:20 AM82 °FPassing clouds.7 mph48%29.95 "HgN/A
8:50 AM81 °FPassing clouds.8 mph51%29.95 "HgN/A
8:20 AM79 °FPassing clouds.9 mph54%29.95 "HgN/A
7:50 AM77 °FSunny.8 mph54%29.95 "Hg10 mi
7:20 AM75 °FPassing clouds.5 mph57%29.92 "HgN/A
6:50 AM72 °FSunny.5 mph65%29.92 "Hg10 mi
6:20 AM70 °FClear.6 mph69%29.92 "Hg10 mi
5:50 AM72 °FClear.6 mph65%29.92 "Hg10 mi
5:20 AM68 °FClear.5 mph73%29.92 "Hg10 mi
4:50 AM73 °FClear.7 mph61%29.92 "Hg10 mi
4:20 AM72 °FClear.8 mph65%29.92 "Hg10 mi
3:20 AM73 °FClear.5 mph61%29.92 "Hg10 mi
2:50 AM75 °FClear.6 mph57%29.95 "Hg10 mi
2:20 AM72 °FClear.8 mph69%29.95 "Hg10 mi
1:50 AM72 °FClear.7 mph69%29.95 "Hg10 mi
1:20 AM72 °FClear.5 mph69%29.95 "Hg10 mi
Weather by CustomWeather, © 2016

See weather overviewHow to use our weather pages